When you browse on this site, cookies collect data to enhance your experience and personalize the content and advertising you see.
Visit our Privacy Policy to learn more. By continuing to use the site, you agree to this use of cookies and data.
  • In Hungary
  • List of Countries
  • For 7 days
  • Water Temperature
  • Weather Map
  • News
  • Weather Widgets
  • user-avatar
    Login

    Hourly Weather Balarampur

    Today, 20 February, Thursday

    Time Temperature Precipitation Wind Pressure Humidity
    00:00 +22°C° 0 mm 1 mps 739 mmHg 34%
    01:00 +21°C° 0 mm 1 mps 738 mmHg 36%
    02:00 +21°C° 0 mm 1 mps 738 mmHg 37%
    03:00 +19°C° 0 mm 0 mps 738 mmHg 39%
    04:00 +18°C° 0 mm 0 mps 738 mmHg 41%
    05:00 +18°C° 0 mm 0 mps 738 mmHg 44%
    06:00 +17°C° 0 mm 0 mps 738 mmHg 52%
    07:00 +21°C° 0 mm 1 mps 738 mmHg 51%
    08:00 +22°C° 0 mm 1 mps 739 mmHg 51%
    09:00 +24°C° 0 mm 1 mps 739 mmHg 50%
    10:00 +26°C° 0 mm 2 mps 739 mmHg 42%
    11:00 +28°C° 0 mm 2 mps 739 mmHg 34%
    12:00 +30°C° 0 mm 2 mps 739 mmHg 25%
    13:00 +31°C° 0 mm 2 mps 739 mmHg 22%
    14:00 +32°C° 0 mm 2 mps 738 mmHg 19%
    15:00 +32°C° 0 mm 2 mps 737 mmHg 16%
    16:00 +31°C° 0 mm 1 mps 737 mmHg 17%
    17:00 +30°C° 0 mm 1 mps 737 mmHg 18%
    18:00 +28°C° 0 mm 1 mps 737 mmHg 19%
    19:00 +27°C° 0 mm 1 mps 737 mmHg 20%
    20:00 +26°C° 0 mm 1 mps 738 mmHg 21%
    21:00 +25°C° 0 mm 1 mps 738 mmHg 22%
    22:00 +24°C° 0 mm 1 mps 738 mmHg 31%
    23:00 +23°C° 0 mm 1 mps 739 mmHg 39%

    Tomorrow, 21 February, Friday

    Time Temperature Precipitation Wind Pressure Humidity
    00:00 +22°C° 0 mm 1 mps 739 mmHg 47%
    01:00 +22°C° 0 mm 1 mps 738 mmHg 48%
    02:00 +21°C° 0 mm 1 mps 738 mmHg 49%
    03:00 +21°C° 0 mm 1 mps 738 mmHg 50%
    04:00 +21°C° 0 mm 1 mps 738 mmHg 55%
    05:00 +20°C° 0 mm 1 mps 738 mmHg 59%
    06:00 +20°C° 0 mm 1 mps 738 mmHg 64%
    07:00 +22°C° 0 mm 1 mps 739 mmHg 60%
    08:00 +23°C° 0 mm 1 mps 740 mmHg 56%
    09:00 +25°C° 0 mm 2 mps 740 mmHg 52%
    10:00 +27°C° 0 mm 2 mps 740 mmHg 43%
    11:00 +29°C° 0 mm 3 mps 740 mmHg 35%
    12:00 +33°C° 0 mm 3 mps 740 mmHg 26%
    19:00 +29°C° 0 mm 3 mps 739 mmHg 27%
    20:00 +27°C° 0 mm 3 mps 739 mmHg 30%
    21:00 +26°C° 0 mm 4 mps 740 mmHg 33%
    22:00 +25°C° 0 mm 3 mps 740 mmHg 35%
    23:00 +25°C° 0 mm 2 mps 740 mmHg 37%

    Day after tomorrow, 22 February, Saturday

    Time Temperature Precipitation Wind Pressure Humidity
    00:00 +24°C° 0 mm 2 mps 740 mmHg 40%
    01:00 +23°C° 0 mm 1 mps 740 mmHg 42%
    02:00 +23°C° 0 mm 1 mps 740 mmHg 44%
    03:00 +23°C° 0 mm 1 mps 739 mmHg 46%
    04:00 +22°C° 0 mm 1 mps 739 mmHg 48%
    05:00 +22°C° 0 mm 1 mps 739 mmHg 49%
    06:00 +21°C° 0 mm 1 mps 739 mmHg 50%
    07:00 +23°C° 0 mm 1 mps 740 mmHg 46%
    08:00 +24°C° 0 mm 1 mps 741 mmHg 41%
    09:00 +26°C° 0 mm 2 mps 741 mmHg 37%
    10:00 +28°C° 0 mm 2 mps 741 mmHg 33%
    11:00 +30°C° 0 mm 2 mps 741 mmHg 29%
    12:00 +32°C° 0 mm 2 mps 741 mmHg 25%
    13:00 +33°C° 0 mm 3 mps 740 mmHg 24%
    14:00 +34°C° 0 mm 3 mps 739 mmHg 22%
    15:00 +34°C° 0 mm 3 mps 739 mmHg 21%
    16:00 +33°C° 0 mm 3 mps 738 mmHg 23%
    17:00 +31°C° 0 mm 3 mps 738 mmHg 24%
    18:00 +30°C° 0 mm 3 mps 738 mmHg 25%
    19:00 +29°C° 0 mm 2 mps 739 mmHg 27%
    20:00 +28°C° 0 mm 2 mps 739 mmHg 28%
    21:00 +27°C° 0 mm 2 mps 740 mmHg 30%
    22:00 +26°C° 0 mm 1 mps 740 mmHg 32%
    23:00 +25°C° 0 mm 1 mps 740 mmHg 34%

    23 February, Sunday

    Time Temperature Precipitation Wind Pressure Humidity
    00:00 +22°C° 0 mm 0 mps 739 mmHg 37%
    01:00 +22°C° 0 mm 0 mps 739 mmHg 37%
    02:00 +24°C° 0 mm 1 mps 739 mmHg 37%
    03:00 +24°C° 0 mm 1 mps 738 mmHg 38%
    04:00 +23°C° 0 mm 1 mps 738 mmHg 40%
    05:00 +23°C° 0 mm 1 mps 738 mmHg 41%
    06:00 +22°C° 0 mm 1 mps 738 mmHg 43%
    07:00 +23°C° 0 mm 1 mps 739 mmHg 41%
    08:00 +25°C° 0 mm 1 mps 739 mmHg 39%
    09:00 +26°C° 0 mm 2 mps 740 mmHg 37%
    10:00 +28°C° 0 mm 2 mps 740 mmHg 33%
    11:00 +30°C° 0 mm 3 mps 740 mmHg 29%
    12:00 +33°C° 0 mm 4 mps 739 mmHg 24%
    13:00 +34°C° 0 mm 3 mps 739 mmHg 23%
    14:00 +35°C° 0 mm 3 mps 738 mmHg 22%
    15:00 +35°C° 0 mm 3 mps 737 mmHg 21%
    16:00 +34°C° 0 mm 3 mps 737 mmHg 23%
    17:00 +33°C° 0 mm 3 mps 736 mmHg 24%
    18:00 +31°C° 0 mm 3 mps 736 mmHg 26%
    19:00 +30°C° 0 mm 3 mps 737 mmHg 28%
    20:00 +28°C° 0 mm 3 mps 737 mmHg 30%
    21:00 +27°C° 0 mm 3 mps 738 mmHg 32%
    22:00 +26°C° 0 mm 3 mps 738 mmHg 33%
    23:00 +26°C° 0 mm 2 mps 738 mmHg 35%

    24 February, Monday

    Time Temperature Precipitation Wind Pressure Humidity
    00:00 +25°C° 0 mm 2 mps 738 mmHg 36%
    01:00 +25°C° 0 mm 2 mps 737 mmHg 40%
    02:00 +24°C° 0 mm 1 mps 737 mmHg 44%
    03:00 +24°C° 0 mm 1 mps 736 mmHg 48%
    04:00 +24°C° 0 mm 2 mps 736 mmHg 47%
    05:00 +25°C° 0 mm 3 mps 736 mmHg 45%
    06:00 +25°C° 0 mm 4 mps 736 mmHg 43%
    07:00 +25°C° 0 mm 5 mps 737 mmHg 43%
    08:00 +26°C° 0 mm 6 mps 737 mmHg 43%
    09:00 +26°C° 0 mm 7 mps 738 mmHg 43%
    10:00 +28°C° 0 mm 5 mps 738 mmHg 38%
    11:00 +30°C° 0 mm 3 mps 738 mmHg 32%
    12:00 +31°C° 0 mm 1 mps 738 mmHg 27%
    13:00 +30°C° 0.1 mm 2 mps 737 mmHg 32%
    14:00 +28°C° 0.1 mm 3 mps 736 mmHg 38%
    15:00 +27°C° 0.1 mm 4 mps 736 mmHg 43%
    16:00 +26°C° 0 mm 4 mps 736 mmHg 45%
    17:00 +26°C° 0 mm 3 mps 735 mmHg 47%
    18:00 +25°C° 0 mm 3 mps 735 mmHg 49%
    19:00 +24°C° 0 mm 2 mps 736 mmHg 51%
    20:00 +24°C° 0 mm 2 mps 736 mmHg 53%
    21:00 +23°C° 0 mm 1 mps 736 mmHg 55%
    22:00 +23°C° 0 mm 2 mps 736 mmHg 55%
    23:00 +22°C° 0 mm 3 mps 736 mmHg 54%

    25 February, Tuesday

    Time Temperature Precipitation Wind Pressure Humidity
    00:00 +22°C° 0 mm 3 mps 737 mmHg 54%
    01:00 +22°C° 0.2 mm 3 mps 736 mmHg 58%
    02:00 +21°C° 0.2 mm 2 mps 736 mmHg 61%
    03:00 +21°C° 0.2 mm 1 mps 735 mmHg 65%
    04:00 +20°C° 0.2 mm 2 mps 736 mmHg 68%
    05:00 +20°C° 0.2 mm 2 mps 736 mmHg 70%
    06:00 +20°C° 0.2 mm 3 mps 736 mmHg 73%
    07:00 +19°C° 1.2 mm 2 mps 736 mmHg 76%
    08:00 +19°C° 1.2 mm 2 mps 737 mmHg 79%
    09:00 +20°C° 1.2 mm 1 mps 738 mmHg 83%
    10:00 +20°C° 1.2 mm 2 mps 737 mmHg 78%
    11:00 +20°C° 1.2 mm 3 mps 737 mmHg 73%
    12:00 +21°C° 1.2 mm 5 mps 737 mmHg 67%
    13:00 +22°C° 0 mm 5 mps 736 mmHg 62%
    14:00 +25°C° 0 mm 5 mps 735 mmHg 57%
    15:00 +26°C° 0 mm 5 mps 735 mmHg 52%
    16:00 +25°C° 0.2 mm 4 mps 735 mmHg 58%
    17:00 +24°C° 0.2 mm 3 mps 735 mmHg 63%
    18:00 +22°C° 0.2 mm 3 mps 734 mmHg 69%
    19:00 +21°C° 1.7 mm 2 mps 735 mmHg 72%
    20:00 +21°C° 1.7 mm 2 mps 735 mmHg 74%
    21:00 +20°C° 1.7 mm 2 mps 736 mmHg 77%
    22:00 +20°C° 0.2 mm 2 mps 736 mmHg 79%
    23:00 +20°C° 0.2 mm 2 mps 736 mmHg 82%
    Show more